| time (UTC) | temp F | wind direction | speed MPH | gust MPH | rain 1hr in | rain 24hr in | rain mn in | humidity % | barometer mb |
| 20260902224507 | 87 | 55 | 4.0 | 11.0 | 0.00 | 0.00 | 0.00 | 25 | 1002.9 |
| 20260902224007 | 88 | 99 | 7.0 | 13.0 | 0.00 | 0.00 | 0.00 | 24 | 1003.0 |
| 20260902223507 | 89 | 56 | 7.0 | 12.0 | 0.00 | 0.00 | 0.00 | 24 | 1002.8 |
| 20260902223006 | 89 | 77 | 5.0 | 11.0 | 0.00 | 0.00 | 0.00 | 23 | 1002.9 |
| 20260902222509 | 89 | 51 | 3.0 | 12.0 | 0.00 | 0.00 | 0.00 | 23 | 1002.8 |
| 20260902222006 | 89 | 80 | 8.0 | 12.0 | 0.00 | 0.00 | 0.00 | 24 | 1002.8 |
| 20260902221506 | 89 | 57 | 6.0 | 13.0 | 0.00 | 0.00 | 0.00 | 23 | 1002.9 |
| 20260902221006 | 89 | 24 | 7.0 | 13.0 | 0.00 | 0.00 | 0.00 | 23 | 1003.1 |
| 20260902220506 | 89 | 50 | 7.0 | 14.0 | 0.00 | 0.00 | 0.00 | 23 | 1003.2 |
| 20260902220004 | 90 | 65 | 7.0 | 14.0 | 0.00 | 0.00 | 0.00 | 23 | 1003.3 |
| 20260902215504 | 90 | 49 | 3.0 | 12.0 | 0.00 | 0.00 | 0.00 | 23 | 1003.4 |
| 20260902215003 | 89 | 82 | 6.0 | 14.0 | 0.00 | 0.00 | 0.00 | 24 | 1003.4 |
| 20260902214600 | 89 | 53 | 8.0 | 14.0 | 0.00 | 0.00 | 0.00 | 22 | 1003.5 |
| 20260902214102 | 89 | 46 | 7.0 | 15.0 | 0.00 | 0.00 | 0.00 | 23 | 1003.5 |
| 20260902213600 | 89 | 73 | 7.0 | 17.0 | 0.00 | 0.00 | 0.00 | 23 | 1003.6 |
| 20260902213108 | 89 | 88 | 8.0 | 15.0 | 0.00 | 0.00 | 0.00 | 23 | 1003.6 |
| 20260902212559 | 89 | 63 | 5.0 | 13.0 | 0.00 | 0.00 | 0.00 | 23 | 1003.6 |
| 20260902212058 | 89 | 35 | 8.0 | 13.0 | 0.00 | 0.00 | 0.00 | 23 | 1003.7 |
| 20260902211603 | 89 | 80 | 5.0 | 14.0 | 0.00 | 0.00 | 0.00 | 22 | 1003.9 |
| 20260902211056 | 89 | 44 | 7.0 | 13.0 | 0.00 | 0.00 | 0.00 | 23 | 1004.0 |
| 20260902210557 | 89 | 46 | 9.0 | 13.0 | 0.00 | 0.00 | 0.00 | 23 | 1004.1 |
| 20260902205554 | 88 | 74 | 3.0 | 15.0 | 0.00 | 0.00 | 0.00 | 23 | 1004.3 |
| 20260902205059 | 88 | 64 | 8.0 | 15.0 | 0.00 | 0.00 | 0.00 | 23 | 1004.3 |
| 20260902204553 | 88 | 71 | 6.0 | 14.0 | 0.00 | 0.00 | 0.00 | 23 | 1004.5 |
| 20260902204051 | 89 | 59 | 9.0 | 14.0 | 0.00 | 0.00 | 0.00 | 23 | 1004.5 |
| 20260902203550 | 88 | 49 | 5.0 | 10.0 | 0.00 | 0.00 | 0.00 | 23 | 1004.7 |
| 20260902203051 | 88 | 52 | 3.0 | 11.0 | 0.00 | 0.00 | 0.00 | 22 | 1004.9 |
| 20260902202549 | 88 | 87 | 6.0 | 11.0 | 0.00 | 0.00 | 0.00 | 23 | 1004.9 |
| 20260902202048 | 88 | 340 | 2.0 | 11.0 | 0.00 | 0.00 | 0.00 | 24 | 1004.9 |
| 20260902201549 | 88 | 5 | 4.0 | 12.0 | 0.00 | 0.00 | 0.00 | 23 | 1005.0 |
| 20260902201050 | 89 | 42 | 6.0 | 12.0 | 0.00 | 0.00 | 0.00 | 23 | 1005.0 |
| 20260902200546 | 87 | 40 | 4.0 | 12.0 | 0.00 | 0.00 | 0.00 | 23 | 1005.2 |
| 20260902200049 | 87 | 13 | 4.0 | 7.0 | 0.00 | 0.00 | 0.00 | 23 | 1005.2 |
| 20260902195547 | 88 | 40 | 4.0 | 8.0 | 0.00 | 0.00 | 0.00 | 22 | 1005.3 |
| 20260902195044 | 88 | 130 | 1.0 | 10.0 | 0.00 | 0.00 | 0.00 | 24 | 1005.5 |
| 20260902194543 | 87 | 44 | 5.0 | 10.0 | 0.00 | 0.00 | 0.00 | 23 | 1005.5 |
| 20260902194042 | 87 | 76 | 4.0 | 10.0 | 0.00 | 0.00 | 0.00 | 22 | 1005.5 |
| 20260902193541 | 87 | 88 | 5.0 | 13.0 | 0.00 | 0.00 | 0.00 | 23 | 1005.7 |
| 20260902193041 | 87 | 103 | 6.0 | 13.0 | 0.00 | 0.00 | 0.00 | 23 | 1005.6 |
| 20260902192540 | 87 | 111 | 3.0 | 12.0 | 0.00 | 0.00 | 0.00 | 24 | 1005.6 |
| 20260902192042 | 87 | 80 | 3.0 | 12.0 | 0.00 | 0.00 | 0.00 | 23 | 1005.7 |
| 20260902191539 | 87 | 80 | 5.0 | 14.0 | 0.00 | 0.00 | 0.00 | 24 | 1005.8 |
| 20260902191038 | 87 | 31 | 8.0 | 14.0 | 0.00 | 0.00 | 0.00 | 24 | 1005.9 |
| 20260902190537 | 86 | 36 | 5.0 | 11.0 | 0.00 | 0.00 | 0.00 | 25 | 1005.9 |
| 20260902190037 | 86 | 18 | 5.0 | 11.0 | 0.00 | 0.00 | 0.00 | 24 | 1006.0 |
| 20260902185536 | 86 | 34 | 4.0 | 12.0 | 0.00 | 0.00 | 0.00 | 24 | 1006.1 |
| 20260902185036 | 87 | 36 | 6.0 | 12.0 | 0.00 | 0.00 | 0.00 | 24 | 1006.2 |
| 20260902184533 | 86 | 30 | 6.0 | 11.0 | 0.00 | 0.00 | 0.00 | 24 | 1006.3 |
| 20260902184033 | 86 | 132 | 5.0 | 11.0 | 0.00 | 0.00 | 0.00 | 24 | 1006.4 |
| 20260902183532 | 86 | 34 | 4.0 | 14.0 | 0.00 | 0.00 | 0.00 | 25 | 1006.5 |
| 20260902183032 | 86 | 61 | 6.0 | 14.0 | 0.00 | 0.00 | 0.00 | 25 | 1006.5 |
| 20260902182530 | 86 | 113 | 8.0 | 16.0 | 0.00 | 0.00 | 0.00 | 24 | 1006.6 |
| 20260902182034 | 86 | 45 | 7.0 | 16.0 | 0.00 | 0.00 | 0.00 | 24 | 1006.7 |
| 20260902181530 | 86 | 74 | 7.0 | 12.0 | 0.00 | 0.00 | 0.00 | 25 | 1006.9 |
| 20260902181029 | 85 | 63 | 8.0 | 12.0 | 0.00 | 0.00 | 0.00 | 25 | 1007.0 |
| 20260902180529 | 86 | 90 | 5.0 | 14.0 | 0.00 | 0.00 | 0.00 | 25 | 1007.1 |
| 20260902180029 | 85 | 92 | 8.0 | 14.0 | 0.00 | 0.00 | 0.00 | 26 | 1007.3 |
| 20260902175529 | 85 | 58 | 6.0 | 14.0 | 0.00 | 0.00 | 0.00 | 26 | 1007.4 |
| 20260902175028 | 84 | 78 | 7.0 | 13.0 | 0.00 | 0.00 | 0.00 | 27 | 1007.5 |
| 20260902174527 | 85 | 130 | 7.0 | 13.0 | 0.00 | 0.00 | 0.00 | 27 | 1007.4 |
| 20260902174026 | 84 | 65 | 3.0 | 10.0 | 0.00 | 0.00 | 0.00 | 28 | 1007.5 |
| 20260902173526 | 84 | 30 | 4.0 | 11.0 | 0.00 | 0.00 | 0.00 | 26 | 1007.6 |
| 20260902173027 | 84 | 63 | 6.0 | 11.0 | 0.00 | 0.00 | 0.00 | 28 | 1007.7 |
| 20260902172526 | 84 | 121 | 4.0 | 12.0 | 0.00 | 0.00 | 0.00 | 28 | 1007.7 |
| 20260902172023 | 84 | 115 | 5.0 | 12.0 | 0.00 | 0.00 | 0.00 | 28 | 1007.7 |
| 20260902171523 | 84 | 70 | 6.0 | 11.0 | 0.00 | 0.00 | 0.00 | 26 | 1007.8 |
| 20260902171021 | 83 | 90 | 3.0 | 9.0 | 0.00 | 0.00 | 0.00 | 29 | 1008.0 |
| 20260902170520 | 83 | 102 | 5.0 | 9.0 | 0.00 | 0.00 | 0.00 | 28 | 1008.0 |
| 20260902170020 | 83 | 81 | 6.0 | 9.0 | 0.00 | 0.00 | 0.00 | 30 | 1008.1 |
| 20260902165520 | 83 | 112 | 5.0 | 9.0 | 0.00 | 0.00 | 0.00 | 29 | 1008.1 |
| 20260902165019 | 82 | 112 | 5.0 | 10.0 | 0.00 | 0.00 | 0.00 | 28 | 1008.1 |
| 20260902164520 | 82 | 86 | 6.0 | 10.0 | 0.00 | 0.00 | 0.00 | 29 | 1008.2 |
| 20260902164019 | 82 | 61 | 6.0 | 9.0 | 0.00 | 0.00 | 0.00 | 30 | 1008.2 |
| 20260902163519 | 82 | 71 | 5.0 | 10.0 | 0.00 | 0.00 | 0.00 | 31 | 1008.2 |
| 20260902163017 | 82 | 188 | 3.0 | 10.0 | 0.00 | 0.00 | 0.00 | 31 | 1008.2 |
| 20260902162516 | 82 | 90 | 6.0 | 10.0 | 0.00 | 0.00 | 0.00 | 31 | 1008.2 |
| 20260902162015 | 81 | 88 | 3.0 | 10.0 | 0.00 | 0.00 | 0.00 | 31 | 1008.2 |
| 20260902161523 | 81 | 119 | 4.0 | 9.0 | 0.00 | 0.00 | 0.00 | 32 | 1008.2 |
| 20260902161017 | 81 | 77 | 4.0 | 9.0 | 0.00 | 0.00 | 0.00 | 32 | 1008.3 |
| 20260902160517 | 81 | 71 | 4.0 | 10.0 | 0.00 | 0.00 | 0.00 | 32 | 1008.2 |
| 20260902160012 | 80 | 80 | 4.0 | 8.0 | 0.00 | 0.00 | 0.00 | 33 | 1008.2 |
| 20260902155511 | 80 | 90 | 4.0 | 9.0 | 0.00 | 0.00 | 0.00 | 33 | 1008.2 |
| 20260902155014 | 80 | 107 | 4.0 | 8.0 | 0.00 | 0.00 | 0.00 | 33 | 1008.2 |
| 20260902154512 | 79 | 21 | 3.0 | 8.0 | 0.00 | 0.00 | 0.00 | 34 | 1008.3 |
| 20260902154008 | 79 | 81 | 3.0 | 6.0 | 0.00 | 0.00 | 0.00 | 35 | 1008.2 |
| 20260902153508 | 79 | 131 | 2.0 | 7.0 | 0.00 | 0.00 | 0.00 | 37 | 1008.2 |
| 20260902153006 | 78 | 108 | 2.0 | 7.0 | 0.00 | 0.00 | 0.00 | 37 | 1008.2 |
| 20260902152505 | 78 | 109 | 3.0 | 8.0 | 0.00 | 0.00 | 0.00 | 38 | 1008.2 |
| 20260902152006 | 77 | 98 | 2.0 | 10.0 | 0.00 | 0.00 | 0.00 | 40 | 1008.2 |
| 20260902151503 | 77 | 105 | 1.0 | 7.0 | 0.00 | 0.00 | 0.00 | 42 | 1008.2 |
| 20260902151002 | 76 | 97 | 3.0 | 8.0 | 0.00 | 0.00 | 0.00 | 41 | 1008.4 |
| 20260902150501 | 75 | 78 | 2.0 | 8.0 | 0.00 | 0.00 | 0.00 | 42 | 1008.4 |
| 20260902150100 | 75 | 101 | 3.0 | 6.0 | 0.00 | 0.00 | 0.00 | 43 | 1008.4 |
| 20260902145559 | 74 | 107 | 3.0 | 8.0 | 0.00 | 0.00 | 0.00 | 45 | 1008.4 |
| 20260902145057 | 74 | 118 | 3.0 | 8.0 | 0.00 | 0.00 | 0.00 | 45 | 1008.4 |
| 20260902144557 | 74 | 98 | 2.0 | 5.0 | 0.00 | 0.00 | 0.00 | 46 | 1008.3 |
| 20260902144055 | 73 | 115 | 2.0 | 6.0 | 0.00 | 0.00 | 0.00 | 48 | 1008.4 |
| 20260902143555 | 72 | 111 | 3.0 | 6.0 | 0.00 | 0.00 | 0.00 | 49 | 1008.4 |
| 20260902143057 | 72 | 92 | 3.0 | 6.0 | 0.00 | 0.00 | 0.00 | 51 | 1008.5 |
| 20260902142552 | 71 | 85 | 2.0 | 7.0 | 0.00 | 0.00 | 0.00 | 51 | 1008.5 |
| 20260902142052 | 71 | 78 | 2.0 | 7.0 | 0.00 | 0.00 | 0.00 | 51 | 1008.4 |
| 20260902141548 | 70 | 113 | 0.0 | 4.0 | 0.00 | 0.00 | 0.00 | 55 | 1008.6 |
| 20260902141051 | 69 | 325 | 0.0 | 3.0 | 0.00 | 0.00 | 0.00 | 57 | 1008.5 |
| 20260902140546 | 67 | 148 | 1.0 | 3.0 | 0.00 | 0.00 | 0.00 | 58 | 1008.5 |
| 20260902140046 | 66 | 227 | 0.0 | 3.0 | 0.00 | 0.00 | 0.00 | 60 | 1008.5 |
| 20260902135543 | 65 | 119 | 0.0 | 3.0 | 0.00 | 0.00 | 0.00 | 61 | 1008.6 |
| 20260902135043 | 64 | 175 | 1.0 | 7.0 | 0.00 | 0.00 | 0.00 | 62 | 1008.6 |
| 20260902134557 | 63 | 115 | 3.0 | 7.0 | 0.00 | 0.00 | 0.00 | 63 | 1008.8 |
| 20260902134041 | 62 | 116 | 2.0 | 4.0 | 0.00 | 0.00 | 0.00 | 64 | 1008.8 |
| 20260902133541 | 61 | 111 | 1.0 | 3.0 | 0.00 | 0.00 | 0.00 | 65 | 1008.7 |
| 20260902133041 | 60 | 115 | 1.0 | 3.0 | 0.00 | 0.00 | 0.00 | 66 | 1008.7 |
| 20260902132543 | 59 | 197 | 0.0 | 2.0 | 0.00 | 0.00 | 0.00 | 68 | 1008.5 |
| 20260902132040 | 58 | 172 | 0.0 | 1.0 | 0.00 | 0.00 | 0.00 | 70 | 1008.5 |
| 20260902131547 | 57 | 145 | 0.0 | 1.0 | 0.00 | 0.00 | 0.00 | 74 | 1008.5 |
| 20260902131039 | 56 | 131 | 0.0 | 1.0 | 0.00 | 0.00 | 0.00 | 75 | 1008.4 |
| 20260902130538 | 55 | 360 | 0.0 | 3.0 | 0.00 | 0.00 | 0.00 | 76 | 1008.4 |
| 20260902130038 | 54 | 360 | 1.0 | 3.0 | 0.00 | 0.00 | 0.00 | 75 | 1008.3 |
| 20260902125538 | 54 | 360 | 0.0 | 1.0 | 0.00 | 0.00 | 0.00 | 75 | 1008.3 |
| 20260902125037 | 55 | 360 | 0.0 | 1.0 | 0.00 | 0.00 | 0.00 | 74 | 1008.2 |
| 20260902124537 | 55 | 360 | 0.0 | 2.0 | 0.00 | 0.00 | 0.00 | 74 | 1008.2 |
| 20260902124037 | 54 | 360 | 0.0 | 2.0 | 0.00 | 0.00 | 0.00 | 75 | 1008.1 |
| 20260902123536 | 55 | 360 | 0.0 | 2.0 | 0.00 | 0.00 | 0.00 | 74 | 1008.1 |
| 20260902123036 | 55 | 360 | 0.0 | 2.0 | 0.00 | 0.00 | 0.00 | 74 | 1008.2 |
| 20260902122536 | 55 | 360 | 0.0 | 2.0 | 0.00 | 0.00 | 0.00 | 74 | 1008.1 |
| 20260902122034 | 55 | 360 | 0.0 | 1.0 | 0.00 | 0.00 | 0.00 | 74 | 1008.1 |
| 20260902121535 | 55 | 360 | 0.0 | 1.0 | 0.00 | 0.00 | 0.00 | 75 | 1008.0 |
| 20260902121034 | 54 | 360 | 0.0 | 1.0 | 0.00 | 0.00 | 0.00 | 77 | 1008.0 |
| 20260902120534 | 54 | 360 | 0.0 | 1.0 | 0.00 | 0.00 | 0.00 | 79 | 1007.9 |
| 20260902120038 | 53 | 360 | 0.0 | 1.0 | 0.00 | 0.00 | 0.00 | 79 | 1007.9 |
| 20260902115533 | 54 | 360 | 0.0 | 1.0 | 0.00 | 0.00 | 0.00 | 77 | 1007.8 |
| 20260902115032 | 55 | 360 | 0.0 | 1.0 | 0.00 | 0.00 | 0.00 | 77 | 1007.7 |
| 20260902114533 | 56 | 360 | 0.0 | 1.0 | 0.00 | 0.00 | 0.00 | 76 | 1007.5 |
| 20260902114030 | 56 | 360 | 0.0 | 1.0 | 0.00 | 0.00 | 0.00 | 77 | 1007.5 |
| 20260902113530 | 55 | 360 | 0.0 | 1.0 | 0.00 | 0.00 | 0.00 | 77 | 1007.5 |
| 20260902113029 | 55 | 360 | 0.0 | 0.0 | 0.00 | 0.00 | 0.00 | 77 | 1007.5 |
| 20260902112529 | 55 | 360 | 0.0 | 0.0 | 0.00 | 0.00 | 0.00 | 77 | 1007.5 |
| 20260902112029 | 55 | 360 | 0.0 | 0.0 | 0.00 | 0.00 | 0.00 | 76 | 1007.5 |
| 20260902111527 | 56 | 360 | 0.0 | 1.0 | 0.00 | 0.00 | 0.00 | 75 | 1007.3 |
| 20260902111026 | 56 | 360 | 0.0 | 1.0 | 0.00 | 0.00 | 0.00 | 75 | 1007.3 |
| 20260902110526 | 56 | 360 | 0.0 | 0.0 | 0.00 | 0.00 | 0.00 | 74 | 1007.3 |
| 20260902110025 | 56 | 360 | 0.0 | 0.0 | 0.00 | 0.00 | 0.00 | 73 | 1007.4 |
| 20260902105525 | 57 | 360 | 0.0 | 0.0 | 0.00 | 0.00 | 0.00 | 73 | 1007.3 |
| 20260902105025 | 56 | 360 | 0.0 | 0.0 | 0.00 | 0.00 | 0.00 | 75 | 1007.3 |
| 20260902104525 | 56 | 360 | 0.0 | 0.0 | 0.00 | 0.00 | 0.00 | 75 | 1007.4 |
| 20260902104024 | 56 | 360 | 0.0 | 0.0 | 0.00 | 0.00 | 0.00 | 75 | 1007.5 |
| 20260902103525 | 57 | 360 | 0.0 | 0.0 | 0.00 | 0.00 | 0.00 | 74 | 1007.5 |
| 20260902103029 | 57 | 360 | 0.0 | 1.0 | 0.00 | 0.00 | 0.00 | 74 | 1007.5 |
| 20260902102524 | 57 | 360 | 0.0 | 1.0 | 0.00 | 0.00 | 0.00 | 75 | 1007.5 |
| 20260902102023 | 56 | 360 | 0.0 | 0.0 | 0.00 | 0.00 | 0.00 | 76 | 1007.5 |
| 20260902101522 | 56 | 360 | 0.0 | 0.0 | 0.00 | 0.00 | 0.00 | 76 | 1007.3 |
| 20260902101021 | 57 | 360 | 0.0 | 0.0 | 0.00 | 0.00 | 0.00 | 75 | 1007.3 |
| 20260902100520 | 57 | 360 | 0.0 | 0.0 | 0.00 | 0.00 | 0.00 | 75 | 1007.3 |
| 20260902100020 | 57 | 360 | 0.0 | 0.0 | 0.00 | 0.00 | 0.00 | 74 | 1007.3 |
| 20260902095523 | 57 | 360 | 0.0 | 1.0 | 0.00 | 0.00 | 0.00 | 74 | 1007.2 |
| 20260902095020 | 57 | 360 | 0.0 | 1.0 | 0.00 | 0.00 | 0.00 | 74 | 1007.3 |
| 20260902094519 | 57 | 360 | 0.0 | 0.0 | 0.00 | 0.00 | 0.00 | 73 | 1007.3 |
| 20260902094018 | 57 | 360 | 0.0 | 0.0 | 0.00 | 0.00 | 0.00 | 73 | 1007.2 |
| 20260902093520 | 57 | 360 | 0.0 | 1.0 | 0.00 | 0.00 | 0.00 | 73 | 1007.2 |
| 20260902093017 | 58 | 141 | 0.0 | 1.0 | 0.00 | 0.00 | 0.00 | 73 | 1007.2 |
| 20260902092517 | 58 | 141 | 0.0 | 1.0 | 0.00 | 0.00 | 0.00 | 72 | 1007.2 |
| 20260902092016 | 58 | 141 | 0.0 | 0.0 | 0.00 | 0.00 | 0.00 | 72 | 1007.3 |
| 20260902091533 | 58 | 360 | 0.0 | 0.0 | 0.00 | 0.00 | 0.00 | 72 | 1007.3 |
| 20260902091015 | 59 | 360 | 0.0 | 0.0 | 0.00 | 0.00 | 0.00 | 71 | 1007.2 |
| 20260902090515 | 59 | 141 | 0.0 | 1.0 | 0.00 | 0.00 | 0.00 | 71 | 1007.2 |
| 20260902090014 | 59 | 141 | 0.0 | 1.0 | 0.00 | 0.00 | 0.00 | 72 | 1007.2 |
| 20260902085514 | 59 | 141 | 0.0 | 2.0 | 0.00 | 0.00 | 0.00 | 71 | 1007.1 |
| 20260902085014 | 59 | 127 | 0.0 | 4.0 | 0.00 | 0.00 | 0.00 | 71 | 1007.1 |
| 20260902084514 | 59 | 360 | 1.0 | 4.0 | 0.00 | 0.00 | 0.00 | 74 | 1007.1 |
| 20260902084015 | 58 | 360 | 0.0 | 1.0 | 0.00 | 0.00 | 0.00 | 74 | 1007.1 |
| 20260902083514 | 59 | 292 | 0.0 | 1.0 | 0.00 | 0.00 | 0.00 | 72 | 1007.0 |
| 20260902083012 | 59 | 360 | 0.0 | 1.0 | 0.00 | 0.00 | 0.00 | 73 | 1007.0 |
| 20260902082512 | 59 | 360 | 0.0 | 1.0 | 0.00 | 0.00 | 0.00 | 74 | 1007.1 |
| 20260902082011 | 59 | 360 | 0.0 | 1.0 | 0.00 | 0.00 | 0.00 | 73 | 1007.1 |
| 20260902081511 | 59 | 360 | 0.0 | 1.0 | 0.00 | 0.00 | 0.00 | 73 | 1007.1 |
| 20260902081010 | 60 | 360 | 0.0 | 1.0 | 0.00 | 0.00 | 0.00 | 72 | 1007.1 |
| 20260902080509 | 60 | 269 | 0.0 | 0.0 | 0.00 | 0.00 | 0.00 | 71 | 1007.1 |
| 20260902080009 | 60 | 246 | 0.0 | 1.0 | 0.00 | 0.00 | 0.00 | 70 | 1007.1 |
| 20260902075506 | 61 | 262 | 0.0 | 1.0 | 0.00 | 0.01 | 0.00 | 70 | 1007.2 |
| 20260902075006 | 61 | 269 | 0.0 | 1.0 | 0.00 | 0.01 | 0.00 | 67 | 1007.2 |
| 20260902074505 | 61 | 269 | 0.0 | 1.0 | 0.00 | 0.01 | 0.00 | 70 | 1007.2 |
| 20260902074004 | 61 | 270 | 0.0 | 1.0 | 0.00 | 0.01 | 0.00 | 71 | 1007.1 |
| 20260902073506 | 61 | 270 | 0.0 | 0.0 | 0.00 | 0.01 | 0.00 | 70 | 1007.1 |
| 20260902073111 | 62 | 270 | 0.0 | 1.0 | 0.00 | 0.01 | 0.00 | 70 | 1007.0 |
| 20260902072603 | 61 | 270 | 0.0 | 1.0 | 0.00 | 0.01 | 0.00 | 72 | 1007.0 |
| 20260902072002 | 62 | 270 | 0.0 | 0.0 | 0.00 | 0.01 | 0.00 | 71 | 1007.0 |
| 20260902071510 | 62 | 270 | 0.0 | 0.0 | 0.00 | 0.01 | 0.00 | 71 | 1007.1 |
| 20260902071002 | 62 | 269 | 0.0 | 0.0 | 0.00 | 0.01 | 0.00 | 72 | 1007.1 |
| 20260902070500 | 62 | 269 | 0.0 | 0.0 | 0.00 | 0.01 | 0.00 | 70 | 1006.9 |
| 20260902070002 | 62 | 269 | 0.0 | 0.0 | 0.00 | 0.01 | 0.00 | 70 | 1006.9 |
| 20260902065600 | 62 | 269 | 0.0 | 1.0 | 0.00 | 0.01 | 0.00 | 71 | 1007.0 |
| 20260902065100 | 62 | 269 | 0.0 | 1.0 | 0.00 | 0.01 | 0.00 | 70 | 1006.9 |
| 20260902064606 | 62 | 269 | 0.0 | 2.0 | 0.00 | 0.01 | 0.00 | 70 | 1007.0 |
| 20260902064056 | 63 | 269 | 0.0 | 2.0 | 0.00 | 0.01 | 0.00 | 66 | 1006.9 |
| 20260902063557 | 64 | 236 | 0.0 | 3.0 | 0.00 | 0.01 | 0.00 | 65 | 1006.9 |
| 20260902063059 | 63 | 217 | 1.0 | 2.0 | 0.00 | 0.01 | 0.00 | 66 | 1007.0 |
| 20260902062557 | 63 | 273 | 0.0 | 1.0 | 0.00 | 0.01 | 0.00 | 66 | 1007.0 |
| 20260902062059 | 64 | 273 | 0.0 | 2.0 | 0.00 | 0.01 | 0.00 | 65 | 1007.0 |
| 20260902061607 | 64 | 267 | 0.0 | 2.0 | 0.00 | 0.01 | 0.00 | 64 | 1007.0 |
| 20260902061054 | 64 | 214 | 1.0 | 4.0 | 0.00 | 0.01 | 0.00 | 63 | 1007.1 |
| 20260902060552 | 65 | 247 | 1.0 | 4.0 | 0.00 | 0.01 | 0.00 | 63 | 1007.1 |
| 20260902060050 | 65 | 217 | 1.0 | 3.0 | 0.00 | 0.01 | 0.00 | 63 | 1007.1 |
| 20260902055650 | 65 | 245 | 1.0 | 3.0 | 0.00 | 0.01 | 0.01 | 63 | 1007.1 |
| 20260902055050 | 65 | 246 | 1.0 | 3.0 | 0.00 | 0.01 | 0.01 | 64 | 1007.2 |
| 20260902054550 | 64 | 255 | 0.0 | 3.0 | 0.00 | 0.01 | 0.01 | 64 | 1007.1 |
| 20260902054049 | 64 | 234 | 0.0 | 0.0 | 0.00 | 0.01 | 0.01 | 64 | 1007.1 |
| 20260902053549 | 65 | 234 | 0.0 | 1.0 | 0.00 | 0.01 | 0.01 | 64 | 1007.1 |
| 20260902053051 | 65 | 235 | 0.0 | 2.0 | 0.00 | 0.01 | 0.01 | 62 | 1007.1 |
| 20260902052549 | 65 | 235 | 0.0 | 2.0 | 0.00 | 0.01 | 0.01 | 62 | 1007.3 |
| 20260902052049 | 65 | 245 | 0.0 | 3.0 | 0.00 | 0.01 | 0.01 | 62 | 1007.2 |
| 20260902051549 | 66 | 243 | 1.0 | 3.0 | 0.00 | 0.01 | 0.01 | 62 | 1007.3 |
| 20260902051049 | 66 | 227 | 0.0 | 0.0 | 0.00 | 0.01 | 0.01 | 60 | 1007.3 |
| 20260902050551 | 66 | 227 | 0.0 | 1.0 | 0.00 | 0.01 | 0.01 | 60 | 1007.2 |
| 20260902050051 | 67 | 360 | 0.0 | 2.0 | 0.00 | 0.01 | 0.01 | 60 | 1007.3 |
| 20260902045548 | 67 | 360 | 0.0 | 4.0 | 0.00 | 0.01 | 0.01 | 60 | 1007.3 |
| 20260902045048 | 67 | 360 | 0.0 | 4.0 | 0.00 | 0.01 | 0.01 | 59 | 1007.2 |
| 20260902044548 | 67 | 360 | 1.0 | 6.0 | 0.00 | 0.01 | 0.01 | 59 | 1007.3 |
| 20260902044051 | 68 | 360 | 0.0 | 6.0 | 0.00 | 0.01 | 0.01 | 58 | 1007.4 |
| 20260902043550 | 68 | 360 | 2.0 | 4.0 | 0.00 | 0.01 | 0.01 | 57 | 1007.5 |
| 20260902043053 | 69 | 281 | 2.0 | 4.0 | 0.00 | 0.01 | 0.01 | 56 | 1007.6 |
| 20260902042547 | 70 | 252 | 1.0 | 3.0 | 0.00 | 0.01 | 0.01 | 51 | 1007.6 |
| 20260902042047 | 71 | 360 | 0.0 | 2.0 | 0.00 | 0.01 | 0.01 | 47 | 1007.5 |
| 20260902041548 | 70 | 360 | 0.0 | 1.0 | 0.00 | 0.01 | 0.01 | 49 | 1007.4 |
| 20260902041047 | 70 | 360 | 0.0 | 2.0 | 0.00 | 0.01 | 0.01 | 50 | 1007.5 |
| 20260902040547 | 70 | 116 | 0.0 | 5.0 | 0.00 | 0.01 | 0.01 | 50 | 1007.5 |
| 20260902040047 | 71 | 142 | 2.0 | 5.0 | 0.00 | 0.01 | 0.01 | 49 | 1007.5 |
| 20260902035550 | 71 | 360 | 0.0 | 1.0 | 0.00 | 0.06 | 0.01 | 48 | 1007.5 |
| 20260902035046 | 71 | 260 | 0.0 | 0.0 | 0.00 | 0.06 | 0.01 | 48 | 1007.5 |
| 20260902034546 | 71 | 259 | 0.0 | 1.0 | 0.00 | 0.06 | 0.01 | 48 | 1007.6 |
| 20260902034047 | 72 | 259 | 0.0 | 1.0 | 0.00 | 0.06 | 0.01 | 47 | 1007.5 |
| 20260902033547 | 72 | 259 | 0.0 | 2.0 | 0.00 | 0.06 | 0.01 | 47 | 1007.4 |
| 20260902033045 | 71 | 259 | 0.0 | 3.0 | 0.00 | 0.06 | 0.01 | 48 | 1007.5 |
| 20260902032545 | 72 | 260 | 0.0 | 3.0 | 0.00 | 0.06 | 0.01 | 48 | 1007.5 |
| 20260902032044 | 73 | 66 | 0.0 | 3.0 | 0.00 | 0.06 | 0.01 | 46 | 1007.4 |
| 20260902031545 | 74 | 80 | 2.0 | 4.0 | 0.00 | 0.06 | 0.01 | 44 | 1007.2 |
| 20260902031045 | 73 | 78 | 2.0 | 3.0 | 0.00 | 0.06 | 0.01 | 45 | 1007.2 |
| 20260902030548 | 73 | 105 | 1.0 | 3.0 | 0.00 | 0.06 | 0.01 | 45 | 1007.2 |
| 20260902030044 | 72 | 101 | 0.0 | 2.0 | 0.00 | 0.06 | 0.01 | 46 | 1007.2 |
| 20260902025544 | 72 | 115 | 0.0 | 3.0 | 0.00 | 0.08 | 0.01 | 46 | 1007.1 |
| 20260902025044 | 72 | 75 | 1.0 | 3.0 | 0.00 | 0.08 | 0.01 | 46 | 1007.1 |
| 20260902024547 | 74 | 97 | 1.0 | 3.0 | 0.00 | 0.08 | 0.01 | 44 | 1007.0 |
| 20260902024044 | 75 | 348 | 0.0 | 5.0 | 0.00 | 0.08 | 0.01 | 43 | 1006.8 |
| 20260902023543 | 75 | 59 | 3.0 | 8.0 | 0.00 | 0.08 | 0.01 | 41 | 1006.8 |
| 20260902023043 | 76 | 62 | 4.0 | 8.0 | 0.00 | 0.08 | 0.01 | 41 | 1006.6 |
| 20260902022543 | 76 | 64 | 4.0 | 8.0 | 0.00 | 0.08 | 0.01 | 40 | 1006.7 |
| 20260902022044 | 77 | 73 | 3.0 | 10.0 | 0.00 | 0.08 | 0.01 | 39 | 1006.9 |
| 20260902021550 | 77 | 90 | 5.0 | 10.0 | 0.00 | 0.08 | 0.01 | 38 | 1006.8 |
| 20260902021042 | 76 | 71 | 5.0 | 9.0 | 0.00 | 0.08 | 0.01 | 39 | 1006.7 |
| 20260902020542 | 76 | 53 | 4.0 | 8.0 | 0.00 | 0.08 | 0.01 | 39 | 1006.6 |
| 20260902020041 | 76 | 94 | 2.0 | 8.0 | 0.00 | 0.08 | 0.01 | 40 | 1006.6 |
| 20260902015545 | 76 | 111 | 4.0 | 8.0 | 0.00 | 0.08 | 0.01 | 40 | 1006.6 |
| 20260902015042 | 76 | 92 | 3.0 | 6.0 | 0.00 | 0.08 | 0.01 | 39 | 1006.4 |
| 20260902014544 | 76 | 60 | 3.0 | 6.0 | 0.00 | 0.08 | 0.01 | 40 | 1006.4 |
| 20260902014041 | 75 | 63 | 2.0 | 4.0 | 0.00 | 0.08 | 0.01 | 41 | 1006.3 |
| 20260902013540 | 75 | 81 | 1.0 | 3.0 | 0.00 | 0.08 | 0.01 | 42 | 1006.3 |
| 20260902013040 | 76 | 53 | 0.0 | 4.0 | 0.00 | 0.08 | 0.01 | 41 | 1006.1 |
| 20260902012540 | 76 | 132 | 1.0 | 4.0 | 0.00 | 0.08 | 0.01 | 41 | 1006.1 |
| 20260902012039 | 77 | 351 | 2.0 | 5.0 | 0.00 | 0.08 | 0.01 | 40 | 1006.1 |
| 20260902011548 | 78 | 351 | 1.0 | 5.0 | 0.00 | 0.08 | 0.01 | 40 | 1005.9 |
| 20260902011038 | 79 | 360 | 0.0 | 3.0 | 0.00 | 0.08 | 0.01 | 42 | 1006.0 |
| 20260902010538 | 80 | 360 | 0.0 | 2.0 | 0.00 | 0.08 | 0.01 | 36 | 1005.9 |
| 20260902010107 | 80 | 360 | 1.0 | 2.0 | 0.00 | 0.08 | 0.01 | 36 | 1005.9 |
| 20260902005537 | 80 | 360 | 0.0 | 2.0 | 0.00 | 0.08 | 0.01 | 37 | 1005.9 |
| 20260902005037 | 80 | 360 | 0.0 | 2.0 | 0.00 | 0.08 | 0.01 | 38 | 1006.0 |
| 20260902004537 | 80 | 360 | 0.0 | 2.0 | 0.00 | 0.08 | 0.01 | 38 | 1005.9 |
| 20260902004035 | 80 | 360 | 0.0 | 2.0 | 0.00 | 0.08 | 0.01 | 39 | 1005.9 |
| 20260902003535 | 80 | 26 | 0.0 | 2.0 | 0.00 | 0.08 | 0.01 | 39 | 1005.9 |
| 20260902003035 | 80 | 360 | 0.0 | 2.0 | 0.00 | 0.08 | 0.01 | 39 | 1006.0 |
| 20260902002536 | 81 | 5 | 0.0 | 2.0 | 0.00 | 0.08 | 0.01 | 36 | 1006.0 |
| 20260902002034 | 81 | 5 | 0.0 | 2.0 | 0.00 | 0.08 | 0.01 | 34 | 1006.0 |
| 20260902001535 | 82 | 5 | 0.0 | 1.0 | 0.00 | 0.08 | 0.01 | 31 | 1006.0 |
| 20260902001036 | 81 | 5 | 0.0 | 1.0 | 0.00 | 0.08 | 0.01 | 33 | 1006.1 |
| 20260902000534 | 82 | 9 | 0.0 | 1.0 | 0.00 | 0.08 | 0.01 | 33 | 1006.0 |
| 20260902000043 | 82 | 5 | 0.0 | 1.0 | 0.00 | 0.08 | 0.01 | 33 | 1006.0 |
| 20260901235534 | 82 | 5 | 0.0 | 1.0 | 0.00 | 0.08 | 0.01 | 34 | 1005.9 |
| 20260901235033 | 81 | 5 | 0.0 | 1.0 | 0.00 | 0.08 | 0.01 | 34 | 1005.9 |
| 20260901234533 | 81 | 5 | 0.0 | 2.0 | 0.00 | 0.08 | 0.01 | 34 | 1006.0 |
| 20260901234033 | 82 | 5 | 0.0 | 2.0 | 0.00 | 0.08 | 0.01 | 36 | 1006.0 |
| 20260901233533 | 83 | 5 | 0.0 | 2.0 | 0.00 | 0.08 | 0.01 | 33 | 1005.9 |
| 20260901233033 | 83 | 360 | 0.0 | 2.0 | 0.00 | 0.08 | 0.01 | 32 | 1005.9 |
| 20260901232533 | 83 | 28 | 0.0 | 3.0 | 0.00 | 0.08 | 0.01 | 30 | 1005.9 |
| 20260901232037 | 85 | 28 | 0.0 | 4.0 | 0.00 | 0.08 | 0.01 | 28 | 1005.8 |
| 20260901231541 | 85 | 355 | 1.0 | 4.0 | 0.00 | 0.08 | 0.01 | 28 | 1005.8 |
| 20260901231032 | 86 | 30 | 1.0 | 5.0 | 0.00 | 0.08 | 0.01 | 29 | 1005.8 |
| 20260901230532 | 86 | 56 | 3.0 | 8.0 | 0.00 | 0.08 | 0.01 | 27 | 1005.8 |
| 20260901230035 | 86 | 17 | 2.0 | 8.0 | 0.00 | 0.08 | 0.01 | 27 | 1005.9 |
| 20260901225533 | 86 | 82 | 3.0 | 6.0 | 0.00 | 0.08 | 0.01 | 28 | 1005.8 |
| 20260901225030 | 86 | 99 | 1.0 | 4.0 | 0.00 | 0.08 | 0.01 | 28 | 1005.9 |